TimeMDT,TemperatureF,Dew PointF,Humidity,Sea Level PressureIn,VisibilityMPH,Wind Direction,Wind SpeedMPH,Gust SpeedMPH,PrecipitationIn,Events,Conditions,WindDirDegrees,DateUTC
12:58 AM,55.9,45.7,68,30.22,10.0,South,3.5,-,N/A,,Clear,170,2013-07-27 06:58:00
1:58 AM,57.0,45.7,66,30.21,10.0,South,3.5,-,N/A,,Overcast,180,2013-07-27 07:58:00
2:58 AM,55.8,45.1,67,30.20,10.0,ESE,3.5,-,N/A,,Clear,110,2013-07-27 08:58:00
3:55 AM,53.6,44.6,72,30.21,10.0,East,4.6,-,N/A,,Clear,100,2013-07-27 09:55:00
4:58 AM,53.1,45.5,75,30.18,10.0,SE,4.6,-,N/A,,Mostly Cloudy,130,2013-07-27 10:58:00
5:58 AM,52.0,45.0,77,30.18,10.0,SE,3.5,-,N/A,,Clear,140,2013-07-27 11:58:00
6:58 AM,53.4,45.3,74,30.18,10.0,SE,1.2,-,N/A,,Clear,140,2013-07-27 12:58:00
7:58 AM,56.5,45.9,68,30.18,10.0,SE,4.6,-,N/A,,Clear,130,2013-07-27 13:58:00
8:58 AM,62.4,44.6,52,30.18,10.0,South,10.4,-,N/A,,Clear,170,2013-07-27 14:58:00
9:58 AM,64.9,44.8,48,30.14,10.0,SSE,12.7,19.6,N/A,,Clear,160,2013-07-27 15:58:00
10:58 AM,65.8,44.8,47,30.14,10.0,South,16.1,-,N/A,,Scattered Clouds,170,2013-07-27 16:58:00
11:58 AM,68.2,45.3,44,30.12,10.0,South,13.8,-,N/A,,Mostly Cloudy,170,2013-07-27 17:58:00
12:16 PM,69.8,46.4,43,30.14,10.0,SE,15.0,-,N/A,,Partly Cloudy,130,2013-07-27 18:16:00
12:20 PM,69.8,46.4,43,30.14,10.0,South,13.8,-,N/A,,Partly Cloudy,180,2013-07-27 18:20:00
12:21 PM,69.8,46.4,43,30.14,10.0,South,13.8,-,N/A,,Partly Cloudy,180,2013-07-27 18:21:00
12:22 PM,69.8,46.4,43,30.14,10.0,South,13.8,-,N/A,,Partly Cloudy,180,2013-07-27 18:22:00
12:26 PM,69.8,46.4,43,30.13,10.0,SE,15.0,-,N/A,,Partly Cloudy,140,2013-07-27 18:26:00
12:27 PM,69.8,46.4,43,30.13,10.0,SE,15.0,-,N/A,,Partly Cloudy,140,2013-07-27 18:27:00
12:33 PM,69.8,46.4,43,30.13,10.0,South,18.4,26.5,N/A,,Partly Cloudy,180,2013-07-27 18:33:00
12:34 PM,69.8,46.4,43,30.13,10.0,South,18.4,26.5,N/A,,Partly Cloudy,190,2013-07-27 18:34:00
12:38 PM,69.8,46.4,43,30.13,10.0,SE,17.3,26.5,N/A,,Clear,140,2013-07-27 18:38:00
12:39 PM,69.8,46.4,43,30.13,10.0,SE,16.1,26.5,N/A,,Clear,140,2013-07-27 18:39:00
12:52 PM,69.8,46.4,43,30.12,10.0,SE,18.4,24.2,N/A,,Clear,140,2013-07-27 18:52:00
12:58 PM,69.6,46.0,43,30.09,10.0,SSE,16.1,21.9,N/A,,Clear,150,2013-07-27 18:58:00
2:58 PM,73.8,47.5,39,30.04,10.0,SSE,13.8,23.0,N/A,,Clear,160,2013-07-27 20:58:00
3:47 PM,75.2,48.2,38,30.05,10.0,SE,18.4,23.0,N/A,,Clear,140,2013-07-27 21:47:00
3:58 PM,75.0,48.7,39,30.04,10.0,South,13.8,19.6,N/A,,Clear,190,2013-07-27 21:58:00
4:58 PM,75.2,50.9,42,30.01,10.0,South,17.3,-,N/A,,Clear,180,2013-07-27 22:58:00
5:58 PM,71.8,51.4,49,30.01,10.0,South,10.4,-,N/A,,Clear,180,2013-07-27 23:58:00
6:58 PM,71.8,51.8,49,30.00,10.0,South,11.5,-,N/A,,Clear,180,2013-07-28 00:58:00
7:58 PM,69.6,52.5,54,29.99,10.0,SSE,8.1,-,N/A,,Clear,150,2013-07-28 01:58:00
8:58 PM,66.6,51.6,59,29.99,10.0,SE,10.4,-,N/A,,Mostly Cloudy,140,2013-07-28 02:58:00
9:58 PM,64.2,50.9,62,29.98,10.0,SE,9.2,-,N/A,,Clear,130,2013-07-28 03:58:00
10:58 PM,63.3,50.4,63,29.99,10.0,SE,12.7,-,N/A,,Clear,140,2013-07-28 04:58:00
11:58 PM,61.3,50.2,67,29.98,10.0,SE,9.2,-,N/A,,Clear,130,2013-07-28 05:58:00